#datint,netname,site,siteID,timestamp,IntT,BattV,AirT2,AirT,AirT_Avg,AirT_Max,AirT_Min,RH_Avg,RH_Max,RH_Min,EA_Avg,Td_Avg,Td_Max,Td_Min,WindS_Smp,WindS_Avg,WindD_Avg,WindD_SD,WindS_Max,ETo,ETr,SoilT4,SoilT8,SoilVWC8,SolarW_Avg,wetstate_Avg,wetT_Avg,Precip_accum,Precip_WPG,Precip_TB
15min,AgWx,beryljct,423,03OCT2020:00:00:00,54.1,12.9,60.8,59.3,57.0,59.3,55.5,21,24,17,0.291,17.4,19.6,14.1,4.187,3.5,315,9.8,4.3,0.00022,0.00036,58.1,60.2,9,0,.,.,4.26,0.00,0.00
15min,AgWx,beryljct,423,03OCT2020:00:15:00,54.3,12.88,51.2,52.7,58.4,60.8,52.7,19,28,15,0.374,16.4,21.2,13.5,2.346,3.5,327,16,4.6,0.00025,0.00039,57.8,60.2,9,0,.,.,4.26,0.00,0.00
15min,AgWx,beryljct,423,03OCT2020:00:30:00,53.6,12.88,57.0,55.5,53.5,55.5,51.6,23,28,18,0.277,16.8,20.1,13.3,3.551,3.5,323,12,4.3,0.00020,0.00032,57.5,60.1,9,0,.,.,4.26,0.00,0.00
15min,AgWx,beryljct,423,03OCT2020:00:45:00,53.0,12.88,47.7,51.1,55.1,56.7,51.1,19,27,16,0.350,13.3,18.6,11.1,3.025,3.2,338,11,4.2,0.00019,0.00031,57.3,60.1,9,0,.,.,4.26,0.00,0.00
15min,AgWx,beryljct,423,03OCT2020:01:00:00,51.4,12.87,41.5,41.1,43.1,50.7,40.6,30,43,24,0.277,13.5,19.9,10.5,0,2.1,340,54,4.2,0.00000,0.00004,57.0,60.0,10,0,.,.,4.26,0.00,0.00
15min,AgWx,beryljct,423,03OCT2020:01:15:00,49.4,12.85,46.7,44.5,42.1,44.5,41.0,34,51,25,0.397,15.1,25.9,9.4,3.069,0.8,165,31,3.3,-0.00020,-0.00029,56.7,60.0,9,0,.,.,4.26,0.00,0.00
15min,AgWx,beryljct,423,03OCT2020:01:30:00,47.9,12.85,44.5,45.7,45.5,46.5,44.2,32,45,26,0.312,17.4,24.2,12.3,2.543,3.1,197,3.8,3.7,0.00009,0.00016,56.4,59.9,9,0,.,.,4.27,0.01,0.00
15min,AgWx,beryljct,423,03OCT2020:01:45:00,46.9,12.82,45.0,43.5,45.5,47.8,43.1,31,41,24,0.299,16.2,21.7,12.2,3.201,2.7,166,13,3.5,0.00005,0.00011,56.1,59.8,9,0,.,.,4.27,0.00,0.00
15min,AgWx,beryljct,423,03OCT2020:02:00:00,46.4,12.83,50.2,49.3,46.2,49.3,43.6,26,38,21,0.252,13.1,20.6,10.0,2.433,2.8,203,2.9,3.5,0.00009,0.00016,55.9,59.8,9,0,.,.,4.27,0.00,0.00
15min,AgWx,beryljct,423,03OCT2020:02:15:00,46.4,12.82,43.0,44.4,48.4,52.2,43.1,30,51,19,0.372,17.4,26.5,10.7,3.157,2.4,220,5.8,3.5,0.00003,0.00008,55.6,59.7,9,0,.,.,4.27,0.00,0.00
15min,AgWx,beryljct,423,03OCT2020:02:30:00,45.7,12.81,42.8,42.2,44.0,46.9,42.0,43,54,31,0.477,22.4,26.5,17.3,0,0.6,233,13,3.4,-0.00022,-0.00032,55.3,59.6,9,0,.,.,4.27,0.00,0.00
15min,AgWx,beryljct,423,03OCT2020:02:45:00,44.9,12.79,40.8,40.3,41.2,42.6,38.9,48,59,34,0.285,22.6,27.8,13.8,4.932,2.4,160,29,5.1,-0.00003,-0.00001,55.1,59.5,9,0,.,.,4.27,0.00,0.00
15min,AgWx,beryljct,423,03OCT2020:03:00:00,43.7,12.79,39.9,38.5,38.0,40.3,36.6,35,39,30,0.245,12.7,14.9,9.7,4.779,5.1,187,7.7,7.5,0.00019,0.00027,54.8,59.4,9,0,.,.,4.27,0.00,0.00
15min,AgWx,beryljct,423,03OCT2020:03:15:00,42.5,12.77,38.9,38.0,38.2,40.2,36.7,38,47,28,0.345,14.5,18.7,9.1,0.417,2.2,187,4.3,5.0,-0.00001,0.00002,54.5,59.3,9,0,.,.,4.27,0.00,0.00
15min,AgWx,beryljct,423,03OCT2020:03:30:00,41.6,12.76,35.2,35.0,37.1,39.9,35.0,45,55,35,0.300,17.6,23.8,14.6,4.099,3.1,297,44,4.2,0.00003,0.00007,54.3,59.3,9,0,.,.,4.27,0.00,0.00
15min,AgWx,beryljct,423,03OCT2020:03:45:00,40.6,12.76,35.8,35.6,35.0,36.3,34.4,39,44,34,0.276,12.5,15.2,9.7,2.061,3.3,314,8.8,4.3,0.00006,0.00011,54.0,59.2,9,0,.,.,4.28,0.00,0.00
15min,AgWx,beryljct,423,03OCT2020:04:00:00,39.8,12.74,36.2,36.0,36.6,38.8,35.5,47,54,40,0.353,18.2,20.8,14.0,1.162,2.0,191,73,5.3,-0.00005,-0.00005,53.8,59.1,9,0,.,.,4.28,0.00,0.00
15min,AgWx,beryljct,423,03OCT2020:04:15:00,39.1,12.73,35.9,35.7,36.2,37.3,35.4,44,53,40,0.377,16.5,20.3,14.9,2.039,0.5,150,16,2.0,-0.00022,-0.00032,53.5,59.0,10,0,.,.,4.28,0.00,0.00
15min,AgWx,beryljct,423,03OCT2020:04:30:00,38.5,12.72,33.8,33.6,34.6,35.7,33.6,61,65,52,0.393,22.4,24.0,19.7,2.411,0.7,135,34,2.6,-0.00019,-0.00027,53.2,58.9,9,0,.,.,4.28,0.00,0.00
15min,AgWx,beryljct,423,03OCT2020:04:45:00,37.9,12.71,35.2,35.3,35.3,36.8,33.5,53,64,45,0.443,19.6,24.6,16.2,0.636,1.5,244,35,2.5,-0.00010,-0.00013,53.0,58.8,9,0,.,.,4.28,0.00,0.00
15min,AgWx,beryljct,423,03OCT2020:05:00:00,37.6,12.69,34.3,34.1,35.2,36.4,34.1,56,64,49,0.425,21.0,24.1,19.0,0.175,0.7,24,20,4.0,-0.00019,-0.00026,52.8,58.7,9,0,.,.,4.28,0.00,0.00
15min,AgWx,beryljct,423,03OCT2020:05:15:00,37.1,12.69,35.3,35.3,34.7,35.9,33.5,58,67,51,0.378,21.2,23.6,19.5,0,0.2,347,12,1.3,-0.00025,-0.00038,52.5,58.6,9,0,.,.,4.28,0.00,0.00
15min,AgWx,beryljct,423,03OCT2020:05:30:00,36.8,12.68,35.8,35.6,35.7,36.1,35.1,44,55,37,0.277,16.0,20.7,12.5,1.885,1.2,18,17,2.6,-0.00013,-0.00016,52.3,58.5,9,0,.,.,4.28,0.00,0.00
15min,AgWx,beryljct,423,03OCT2020:05:45:00,36.5,12.68,33.6,33.3,34.3,35.5,33.2,43,54,34,0.344,13.9,18.3,8.8,1.03,0.8,359,17,1.9,-0.00017,-0.00024,52.1,58.4,9,0,.,.,4.28,0.00,0.00
15min,AgWx,beryljct,423,03OCT2020:06:00:00,36.1,12.67,32.1,31.8,32.3,33.6,31.8,56,66,49,0.294,18.2,21.8,14.6,2.192,2.5,163,29,3.7,-0.00004,-0.00003,51.9,58.2,9,0,.,.,4.29,0.00,0.00
15min,AgWx,beryljct,423,03OCT2020:06:15:00,35.6,12.66,33.7,34.1,33.2,34.2,31.8,43,48,36,0.316,12.9,16.3,9.7,3.661,2.8,175,6.2,3.7,0.00002,0.00004,51.6,58.1,10,0,.,.,4.28,0.00,0.00
15min,AgWx,beryljct,423,03OCT2020:06:30:00,35.2,12.65,31.1,31.2,32.7,34.8,30.2,50,62,38,0.305,15.9,19.0,11.8,1.403,2.3,172,12,3.9,-0.00003,-0.00002,51.4,58.1,9,0,.,.,4.28,0.00,0.00
15min,AgWx,beryljct,423,03OCT2020:06:45:00,34.7,12.64,37.0,36.7,33.3,36.7,30.9,39,52,33,0.256,10.6,15.6,6.6,2.74,2.4,179,5.7,3.1,0.00000,0.00003,51.2,57.9,9,0,.,.,4.28,0.00,0.00
15min,AgWx,beryljct,423,03OCT2020:07:00:00,34.8,12.64,38.5,37.6,37.5,39.3,35.2,36,48,29,0.297,12.6,17.4,9.2,2.433,3.3,160,6.1,4.5,0.00040,0.00069,51.0,57.8,9,0,.,.,4.29,0.00,0.00
15min,AgWx,beryljct,423,03OCT2020:07:15:00,34.9,12.64,36.5,36.7,34.7,37.8,33.2,36,42,30,0.222,10.1,15.2,6.8,3.266,2.7,176,4.3,4.3,0.00030,0.00053,50.8,57.7,9,0,.,.,4.29,0.00,0.00
15min,AgWx,beryljct,423,03OCT2020:07:30:00,35.2,12.63,36.6,38.6,40.1,41.7,36.7,31,34,28,0.255,11.6,14.5,8.6,3.464,3.2,176,6.4,3.9,0.00044,0.00076,50.6,57.6,10,2,.,.,4.28,0.00,0.00
15min,AgWx,beryljct,423,03OCT2020:07:45:00,35.4,12.64,32.3,32.5,35.4,38.4,32.5,50,59,33,0.298,18.2,21.8,11.9,3.091,2.6,286,70,3.6,0.00028,0.00046,50.4,57.5,9,9,.,.,4.28,0.00,0.00
15min,AgWx,beryljct,423,03OCT2020:08:00:00,35.2,12.7,30.6,31.2,31.7,32.5,30.7,43,49,38,0.246,11.6,14.1,9.2,2.959,2.7,351,8.8,3.6,0.00039,0.00059,50.2,57.3,9,35,.,.,4.28,0.00,0.00
15min,AgWx,beryljct,423,03OCT2020:08:15:00,35.4,12.8,34.1,33.4,32.2,33.7,30.7,46,51,39,0.300,13.6,15.7,11.0,1.513,2.0,354,12,3.1,0.00047,0.00063,50.0,57.2,9,73,.,.,4.29,0.00,0.00
15min,AgWx,beryljct,423,03OCT2020:08:30:00,36.0,12.95,35.5,35.2,34.6,35.2,33.3,48,61,36,0.394,16.8,22.6,10.6,0,0.8,12,20,2.7,0.00053,0.00062,49.8,57.1,9,117,.,.,4.28,0.00,0.00
15min,AgWx,beryljct,423,03OCT2020:08:45:00,37.6,13.25,38.6,39.1,37.0,39.1,35.2,56,61,50,0.451,22.9,25.2,20.5,1.622,0.4,106,37,1.6,0.00068,0.00074,49.6,57.0,9,161,.,.,4.28,0.00,0.00
15min,AgWx,beryljct,423,03OCT2020:09:00:00,39.8,13.67,41.1,40.4,39.4,40.4,38.6,50,61,40,0.351,22.1,26.5,18.1,1.228,2.0,129,5.8,2.8,0.00100,0.00121,49.4,56.9,9,209,.,.,4.28,0.00,0.00
15min,AgWx,beryljct,423,03OCT2020:09:15:00,42.5,14.61,45.5,46.0,43.4,46.1,40.5,37,44,33,0.354,18.7,20.3,17.1,0,0.2,135,0.0,1.3,0.00117,0.00127,49.3,56.8,9,258,.,.,4.28,0.00,0.00
15min,AgWx,beryljct,423,03OCT2020:09:30:00,45.8,14.54,47.3,47.2,45.8,47.2,44.9,36,42,32,0.409,20.4,25.0,17.6,0,0.2,56,8.8,1.1,0.00144,0.00156,49.2,56.7,9,308,.,.,4.27,0.00,0.00
15min,AgWx,beryljct,423,03OCT2020:09:45:00,49.5,14.42,50.6,50.6,49.2,50.8,47.2,37,41,31,0.471,24.0,27.8,19.5,0.723,0.5,97,20,2.0,0.00179,0.00196,49.2,56.6,9,359,.,.,4.27,0.00,0.00
15min,AgWx,beryljct,423,03OCT2020:10:00:00,53.1,14.38,53.8,53.5,52.5,53.5,50.6,35,38,30,0.448,25.5,27.7,22.5,0.965,1.1,138,21,2.1,0.00217,0.00244,49.2,56.4,9,405,.,.,4.27,0.00,0.00
15min,AgWx,beryljct,423,03OCT2020:10:15:00,56.2,14.4,55.3,55.7,54.6,56.0,53.4,29,33,25,0.417,23.1,26.7,19.3,2.126,1.8,128,12,2.9,0.00256,0.00296,49.2,56.3,9,452,.,.,4.27,0.00,0.00
15min,AgWx,beryljct,423,03OCT2020:10:30:00,59.0,14.31,58.2,58.2,56.9,58.5,55.6,29,33,25,0.428,24.8,29.5,20.9,1.973,1.9,115,11,3.0,0.00288,0.00333,49.4,56.2,9,495,.,.,4.26,0.00,0.00
15min,AgWx,beryljct,423,03OCT2020:10:45:00,61.7,14.24,60.8,62.1,59.3,62.2,58.2,24,28,21,0.401,22.6,25.5,20.1,0,1.0,120,14,2.5,0.00310,0.00346,49.5,56.1,9,536,.,.,4.26,0.00,0.00
15min,AgWx,beryljct,423,03OCT2020:11:00:00,64.5,14.2,60.8,61.0,61.0,61.9,60.6,23,25,21,0.412,23.0,25.1,21.3,1.535,0.8,332,65,3.0,0.00336,0.00371,49.8,56.0,9,576,.,.,4.26,0.00,0.00
15min,AgWx,beryljct,423,03OCT2020:11:15:00,67.0,14.25,65.8,65.4,63.0,65.4,61.0,22,25,17,0.418,23.0,26.6,19.0,0.965,1.9,318,29,3.4,0.00377,0.00431,50.2,55.9,9,610,.,.,4.25,0.00,0.00
15min,AgWx,beryljct,423,03OCT2020:11:30:00,69.3,13.75,66.6,66.9,66.2,66.9,65.4,21,25,17,0.498,25.2,29.5,20.5,2.083,2.4,79,25,4.9,0.00416,0.00483,50.5,55.8,9,646,.,.,4.25,0.00,0.00
15min,AgWx,beryljct,423,03OCT2020:11:45:00,70.9,13.69,68.1,67.9,67.2,67.9,66.5,23,28,19,0.502,28.2,32.3,23.7,4.998,3.8,104,29,6.9,0.00454,0.00542,51.0,55.7,9,675,.,.,4.25,0.00,0.00
15min,AgWx,beryljct,423,03OCT2020:12:00:00,71.8,13.67,68.8,68.8,68.4,69.0,67.8,22,26,19,0.479,28.3,32.6,24.9,4.757,5.1,75,15,7.3,0.00491,0.00602,51.5,55.7,9,703,.,.,4.24,0.00,0.00
15min,AgWx,beryljct,423,03OCT2020:12:15:00,72.8,13.63,71.6,70.7,69.9,70.7,68.8,22,28,17,0.573,28.9,35.7,22.8,4.976,5.2,59,21,10.8,0.00514,0.00631,52.1,55.6,9,725,.,.,4.24,0.00,0.00
15min,AgWx,beryljct,423,03OCT2020:12:30:00,74.2,13.62,72.4,72.4,71.8,72.7,70.9,20,26,16,0.562,29.1,34.7,22.9,7.388,6.1,44,20,9.2,0.00546,0.00682,52.7,55.6,9,745,.,.,4.23,0.00,0.00
15min,AgWx,beryljct,423,03OCT2020:12:45:00,75.5,13.62,73.0,73.1,72.8,73.2,72.3,20,25,17,0.522,29.6,35.1,24.8,5.086,7.4,54,16,13.0,0.00575,0.00732,53.3,55.5,9,759,.,.,4.23,0.00,0.00
15min,AgWx,beryljct,423,03OCT2020:13:00:00,76.6,13.63,75.5,75.0,73.9,75.0,73.0,18,22,14,0.419,27.2,33.1,22.6,5.722,7.0,29,23,11.4,0.00585,0.00743,54.0,55.5,9,772,.,.,4.23,0.00,0.00
15min,AgWx,beryljct,423,03OCT2020:13:15:00,77.6,13.55,75.0,75.0,75.0,76.0,74.3,17,24,14,0.486,27.3,36.7,21.7,6.335,6.8,26,22,11.9,0.00594,0.00751,54.7,55.5,9,778,.,.,4.23,0.00,0.00
15min,AgWx,beryljct,423,03OCT2020:13:30:00,78.5,13.55,75.6,75.6,75.6,76.3,75.1,18,23,14,0.649,29.2,35.3,22.7,6.905,6.9,38,24,9.8,0.00601,0.00759,55.3,55.5,9,782,.,.,4.23,0.00,0.00
15min,AgWx,beryljct,423,03OCT2020:13:45:00,79.3,13.5,76.6,76.4,76.2,77.3,75.5,18,24,13,0.472,28.9,36.9,22.1,10.24,7.9,31,18,11.2,0.00616,0.00792,56.0,55.6,9,777,.,.,4.23,0.00,0.00
15min,AgWx,beryljct,423,03OCT2020:14:00:00,80.0,13.55,76.2,77.0,76.7,77.5,76.0,16,22,12,0.633,27.6,34.8,21.2,9.86,8.5,30,18,12.3,0.00626,0.00814,56.7,55.6,9,773,.,.,4.23,0.00,0.00
15min,AgWx,beryljct,423,03OCT2020:14:15:00,80.7,13.45,76.6,76.8,76.9,77.4,76.5,18,22,13,0.409,29.9,35.5,22.3,4.954,8.0,51,18,12.3,0.00615,0.00794,57.4,55.7,9,767,.,.,4.23,0.00,0.00
15min,AgWx,beryljct,423,03OCT2020:14:30:00,81.3,13.59,77.4,77.5,77.2,77.7,76.8,17,21,12,0.463,28.2,35.0,20.4,7.563,7.9,53,11,12.2,0.00609,0.00788,58.0,55.8,9,754,.,.,4.23,0.00,0.00
15min,AgWx,beryljct,423,03OCT2020:14:45:00,81.7,13.45,77.6,77.5,77.4,77.7,77.2,16,22,12,0.419,27.3,35.1,20.5,4.472,7.7,70,15,11.9,0.00597,0.00775,58.6,55.9,9,736,.,.,4.23,0.00,0.00
15min,AgWx,beryljct,423,03OCT2020:15:00:00,82.1,13.49,78.1,78.2,77.8,78.2,77.5,16,23,13,0.526,28.0,36.8,21.9,3.683,6.6,83,16,10.5,0.00568,0.00728,59.2,56.0,9,714,.,.,4.23,0.00,0.00
15min,AgWx,beryljct,423,03OCT2020:15:15:00,82.6,13.39,78.4,78.6,78.3,78.6,78.1,15,20,11,0.459,27.1,33.6,19.0,7.081,6.3,71,16,10.1,0.00543,0.00697,59.8,56.1,9,683,.,.,4.23,0.00,0.00
15min,AgWx,beryljct,423,03OCT2020:15:30:00,83.2,13.39,79.1,79.2,78.9,79.7,78.2,15,20,10,0.440,26.6,34.4,18.5,3.508,4.5,66,36,12.5,0.00485,0.00607,60.4,56.2,9,640,.,.,4.23,0.00,0.00
15min,AgWx,beryljct,423,03OCT2020:15:45:00,84.1,13.44,79.3,79.5,79.4,79.9,79.1,13,19,8.6,0.487,23.9,33.6,15.0,5.678,5.4,33,21,10.7,0.00483,0.00623,60.9,56.4,9,610,.,.,4.23,0.00,0.00
15min,AgWx,beryljct,423,03OCT2020:16:00:00,84.5,13.46,79.7,79.7,79.2,79.8,78.8,13,18,8.9,0.404,24.0,32.1,15.5,7.212,6.0,69,28,11.4,0.00481,0.00630,61.4,56.5,9,592,.,.,4.23,0.00,0.00
15min,AgWx,beryljct,423,03OCT2020:16:15:00,84.7,13.35,80.5,80.4,79.7,80.5,79.1,13,19,8.5,0.331,23.3,34.1,15.2,2.302,4.9,53,38,8.5,0.00425,0.00553,61.9,56.7,9,540,.,.,4.23,0.00,0.00
15min,AgWx,beryljct,423,03OCT2020:16:30:00,84.9,13.33,79.4,79.3,79.9,80.6,79.1,13,19,8.9,0.446,24.4,34.0,15.8,9.97,5.4,46,24,10.0,0.00412,0.00547,62.3,56.8,9,508,.,.,4.23,0.00,0.00
15min,AgWx,beryljct,423,03OCT2020:16:45:00,84.8,13.37,77.6,78.7,78.9,79.5,78.2,15,23,9.2,0.600,27.3,38.2,16.3,6.401,5.8,77,18,9.5,0.00392,0.00529,62.7,57.0,9,471,.,.,4.23,0.00,0.00
15min,AgWx,beryljct,423,03OCT2020:17:00:00,84.2,13.34,78.2,78.5,78.7,79.1,78.4,17,22,12,0.618,29.7,36.1,21.7,6.007,5.0,94,11,7.1,0.00339,0.00457,63.0,57.2,9,423,.,.,4.23,0.00,0.00
15min,AgWx,beryljct,423,03OCT2020:17:15:00,83.6,13.34,78.1,78.5,78.7,79.3,78.0,15,22,11,0.578,26.8,36.6,20.2,3.223,5.1,94,15,7.6,0.00307,0.00427,63.2,57.4,9,372,.,.,4.23,0.00,0.00
15min,AgWx,beryljct,423,03OCT2020:17:30:00,82.9,13.36,77.4,78.1,78.5,79.3,77.5,15,23,10,0.590,27.5,36.7,18.1,4.121,4.5,82,16,7.6,0.00256,0.00361,63.4,57.6,9,321,.,.,4.23,0.00,0.00
15min,AgWx,beryljct,423,03OCT2020:17:45:00,82.1,13.42,79.3,78.3,77.6,78.3,76.9,19,25,13,0.478,31.4,38.7,23.9,4.604,4.3,95,11,6.8,0.00212,0.00307,63.6,57.8,9,270,.,.,4.24,0.00,0.00
15min,AgWx,beryljct,423,03OCT2020:18:00:00,80.9,13.44,77.7,77.0,76.8,78.4,75.9,19,25,14,0.510,31.3,37.4,23.8,4.845,4.5,92,8.7,6.5,0.00179,0.00274,63.7,58.0,9,218,.,.,4.23,0.00,0.00
15min,AgWx,beryljct,423,03OCT2020:18:15:00,79.6,13.45,76.7,76.3,76.2,77.3,75.0,18,25,13,0.523,29.3,37.4,22.5,3.793,4.1,93,12,5.9,0.00099,0.00144,63.7,58.2,9,170,.,.,4.23,0.00,0.00
15min,AgWx,beryljct,423,03OCT2020:18:30:00,78.2,13.49,76.0,76.6,76.6,77.3,76.0,15,17,12,0.456,25.4,28.2,21.1,2.959,3.5,92,7.5,5.0,0.00075,0.00113,63.7,58.3,9,121,.,.,4.24,0.01,0.00
15min,AgWx,beryljct,423,03OCT2020:18:45:00,76.6,13.25,71.8,73.9,75.9,76.8,73.9,15,20,13,0.571,24.6,30.4,21.3,2.214,2.6,74,7.6,4.6,0.00042,0.00067,63.6,58.5,9,76,.,.,4.24,0.00,0.00
15min,AgWx,beryljct,423,03OCT2020:19:00:00,74.5,13.11,69.9,71.8,73.1,73.9,71.8,17,23,14,0.478,25.6,32.9,22.4,2.74,2.7,72,9.3,3.4,0.00027,0.00047,63.5,58.7,10,35,.,.,4.24,0.00,0.00
15min,AgWx,beryljct,423,03OCT2020:19:15:00,71.7,13.05,69.9,69.9,69.4,71.8,68.7,21,25,18,0.458,27.9,31.6,24.2,0,0.5,54,3.6,2.8,-0.00032,-0.00047,63.3,58.9,9,9,.,.,4.24,0.00,0.00
15min,AgWx,beryljct,423,03OCT2020:19:30:00,68.8,13.02,67.7,67.5,68.9,69.9,67.5,19,21,18,0.465,24.5,26.3,23.1,1.337,0.2,48,0.5,1.5,-0.00047,-0.00074,63.1,59.0,9,2,.,.,4.25,0.00,0.00
15min,AgWx,beryljct,423,03OCT2020:19:45:00,66.4,13.01,63.8,63.9,66.0,67.8,63.9,21,23,19,0.458,24.8,26.2,22.6,4.45,3.7,60,5.6,5.4,0.00031,0.00049,62.9,59.1,9,0,.,.,4.25,0.00,0.00
15min,AgWx,beryljct,423,03OCT2020:20:00:00,64.4,13.01,61.3,61.9,62.9,64.4,61.9,19,23,16,0.397,20.0,24.8,15.8,3.661,4.4,54,5.8,5.5,0.00040,0.00060,62.6,59.3,9,0,.,.,4.25,0.00,0.00
15min,AgWx,beryljct,423,03OCT2020:20:15:00,62.5,12.99,61.0,61.2,61.3,62.0,60.8,19,23,16,0.309,18.8,22.7,14.9,3.814,3.2,52,9.5,4.5,0.00020,0.00035,62.2,59.4,9,0,.,.,4.26,0.01,0.00
15min,AgWx,beryljct,423,03OCT2020:20:30:00,60.9,12.97,59.8,59.7,60.0,61.1,59.4,20,24,17,0.402,18.6,23.2,15.6,2.762,3.2,56,7.4,4.0,0.00020,0.00033,61.9,59.5,9,0,.,.,4.25,0.00,0.00
15min,AgWx,beryljct,423,03OCT2020:20:45:00,59.8,12.98,61.9,61.6,60.9,62.0,59.6,18,24,16,0.309,16.7,22.6,15.0,1.885,2.3,34,14,3.3,0.00006,0.00015,61.5,59.6,9,0,.,.,4.26,0.00,0.00
15min,AgWx,beryljct,423,03OCT2020:21:00:00,59.0,12.96,60.7,60.7,61.3,61.9,60.6,18,20,16,0.353,17.1,19.3,15.2,2.631,1.8,53,18,3.1,-0.00004,-0.00001,61.2,59.7,9,0,.,.,4.25,0.00,0.00
15min,AgWx,beryljct,423,03OCT2020:21:15:00,58.3,12.97,60.9,60.6,60.6,60.9,60.2,20,21,19,0.376,19.4,20.4,18.6,1.863,2.1,62,7.6,3.0,0.00001,0.00007,60.9,59.8,9,0,.,.,4.25,0.00,0.00
15min,AgWx,beryljct,423,03OCT2020:21:30:00,57.5,12.95,57.1,56.8,59.4,60.7,56.8,24,31,21,0.493,22.1,27.2,20.2,0.417,1.5,71,12,4.0,-0.00010,-0.00010,60.5,59.8,10,0,.,.,4.25,0.00,0.00
15min,AgWx,beryljct,423,03OCT2020:21:45:00,56.6,12.94,63.1,61.6,57.1,61.7,53.7,29,39,19,0.367,24.4,29.7,19.3,1.535,1.9,185,37,4.1,-0.00004,-0.00001,60.2,59.9,9,0,.,.,4.25,0.00,0.00
15min,AgWx,beryljct,423,03OCT2020:22:00:00,56.0,12.94,55.2,57.8,59.5,61.9,57.5,25,30,20,0.496,23.1,26.9,19.7,0,0.7,128,28,2.7,-0.00028,-0.00040,59.8,59.9,10,0,.,.,4.26,0.00,0.00
15min,AgWx,beryljct,423,03OCT2020:22:15:00,55.2,12.93,57.2,56.2,56.3,58.8,51.8,32,44,26,0.517,26.6,31.8,23.3,3.003,1.8,283,15,3.3,-0.00007,-0.00006,59.5,59.9,9,0,.,.,4.26,0.00,0.00
15min,AgWx,beryljct,423,03OCT2020:22:30:00,54.3,12.93,51.7,54.4,54.1,56.3,52.5,35,47,26,0.481,26.7,33.8,20.9,1.074,3.3,321,10,4.8,0.00013,0.00022,59.1,59.9,10,0,.,.,4.25,0.00,0.00
15min,AgWx,beryljct,423,03OCT2020:22:45:00,53.2,12.92,51.9,50.6,50.6,54.1,49.0,45,52,34,0.509,29.9,32.8,26.0,0,0.8,318,19,2.7,-0.00023,-0.00033,58.8,59.9,9,0,.,.,4.26,0.00,0.00
15min,AgWx,beryljct,423,03OCT2020:23:00:00,51.9,12.91,49.7,50.3,49.7,51.0,48.2,43,51,37,0.498,28.0,31.1,24.8,3.332,0.8,330,17,3.5,-0.00023,-0.00032,58.5,59.9,10,0,.,.,4.26,0.01,0.00
15min,AgWx,beryljct,423,03OCT2020:23:15:00,50.8,12.9,47.9,48.8,48.9,50.3,48.4,37,48,33,0.458,23.6,29.9,20.8,1.293,2.4,320,5.8,3.8,0.00001,0.00006,58.2,59.9,9,0,.,.,4.26,0.00,0.00
15min,AgWx,beryljct,423,03OCT2020:23:30:00,49.8,12.9,49.3,49.2,49.6,51.6,47.7,36,44,27,0.490,23.1,27.2,17.7,2.148,2.3,321,7.8,4.1,0.00000,0.00004,57.9,59.9,9,0,.,.,4.26,0.00,0.00
15min,AgWx,beryljct,423,03OCT2020:23:45:00,49.5,12.89,53.2,52.6,51.0,52.6,49.2,29,40,23,0.365,19.7,26.1,14.6,5.064,3.8,312,5.6,5.2,0.00019,0.00030,57.6,59.9,9,0,.,.,4.26,0.00,0.00
15min,AgWx,beryljct,423,04OCT2020:00:00:00,49.5,12.87,50.9,53.6,52.6,55.3,50.2,30,37,23,0.420,21.6,25.0,18.0,2.696,3.7,305,5.8,5.2,0.00019,0.00030,57.3,59.8,10,0,.,.,4.26,0.00,0.00
15min,AgWx,beryljct,423,04OCT2020:00:15:00,49.2,12.87,48.9,49.9,50.3,53.3,49.2,36,42,30,0.461,24.2,27.5,20.7,0.57,1.4,330,24,2.7,-0.00012,-0.00015,57.0,59.8,10,0,.,.,4.26,0.00,0.00
15min,AgWx,beryljct,423,04OCT2020:00:30:00,48.4,12.87,45.4,45.0,47.5,49.6,44.9,40,48,32,0.433,24.4,27.3,19.8,2.762,1.3,165,70,4.3,-0.00015,-0.00019,56.7,59.7,9,0,.,.,4.27,0.01,0.00
15min,AgWx,beryljct,423,04OCT2020:00:45:00,47.2,12.86,42.0,41.7,42.4,45.1,40.6,41,52,32,0.299,20.1,25.2,15.0,3.442,2.7,173,7.0,4.2,0.00002,0.00006,56.5,59.7,9,0,.,.,4.27,0.00,0.00
15min,AgWx,bigpiney,439,03OCT2020:00:00:00,45.8,12.63,39.8,39.9,41.5,45.6,39.9,52,56,45,0.466,25.3,25.7,24.6,6.292,5.5,230,7.6,7.3,0.00014,0.00020,46.7,46.7,44,0,0,0.0,0.05,0.00,0.00
15min,AgWx,bigpiney,439,03OCT2020:00:15:00,44.7,12.61,39.0,37.8,37.8,39.9,34.8,59,65,56,0.474,24.9,25.8,23.3,2.192,3.9,194,49,6.4,0.00003,0.00006,46.6,46.7,44,0,0,0.0,0.05,0.00,0.00
15min,AgWx,bigpiney,439,03OCT2020:00:30:00,43.4,12.62,44.9,44.2,40.2,44.2,37.9,56,61,48,0.474,25.8,26.4,25.4,1.513,1.9,150,14,2.6,-0.00008,-0.00009,46.6,46.7,44,0,0,0.0,0.05,0.00,0.00
15min,AgWx,bigpiney,439,03OCT2020:00:45:00,42.9,12.61,40.2,36.9,44.1,46.0,36.4,47,62,45,0.458,25.2,25.9,22.0,4.034,2.7,131,17,6.2,0.00001,0.00004,46.6,46.7,44,0,0,0.0,0.05,0.00,0.00
15min,AgWx,bigpiney,439,03OCT2020:01:00:00,42.3,12.6,34.7,34.2,35.6,39.2,33.4,63,67,57,0.444,24.2,26.0,23.0,3.135,2.4,177,16,4.1,-0.00006,-0.00006,46.5,46.7,44,0,0,0.0,0.05,0.00,0.00
15min,AgWx,bigpiney,439,03OCT2020:01:15:00,41.3,12.59,42.6,41.2,38.5,41.2,34.3,59,66,54,0.475,25.4,26.2,24.0,2.455,2.7,213,11,3.4,-0.00003,-0.00002,46.5,46.7,44,0,0,0.0,0.05,0.00,0.00
15min,AgWx,bigpiney,439,03OCT2020:01:30:00,40.4,12.59,40.1,39.0,40.6,41.9,38.8,54,57,51,0.449,25.0,25.9,24.1,6.226,4.9,252,7.3,6.7,0.00010,0.00015,46.4,46.7,44,0,0,0.0,0.05,0.00,0.00
15min,AgWx,bigpiney,439,03OCT2020:01:45:00,39.9,12.57,40.8,40.7,39.6,41.1,37.1,56,61,54,0.469,25.2,25.9,24.1,5.064,5.1,263,9.0,6.3,0.00010,0.00014,46.4,46.7,44,0,0,0.0,0.05,0.00,0.00
15min,AgWx,bigpiney,439,03OCT2020:02:00:00,39.9,12.56,43.9,43.7,39.9,43.7,37.5,56,60,51,0.490,25.6,27.0,24.1,6.489,5.2,269,15,7.8,0.00010,0.00015,46.3,46.7,44,0,0,0.0,0.05,0.00,0.00
15min,AgWx,bigpiney,439,03OCT2020:02:15:00,40.4,12.56,44.5,44.9,44.1,45.1,43.4,50,51,48,0.484,26.6,26.7,26.3,6.927,6.8,292,7.6,8.5,0.00022,0.00029,46.3,46.7,44,0,0,0.0,0.05,0.00,0.00
15min,AgWx,bigpiney,439,03OCT2020:02:30:00,41.3,12.55,43.4,43.4,44.3,44.9,43.4,49,50,48,0.481,26.2,26.4,26.1,4.099,6.1,293,5.9,7.7,0.00020,0.00027,46.2,46.7,44,0,0,0.0,0.05,0.00,0.00
15min,AgWx,bigpiney,439,03OCT2020:02:45:00,41.8,12.55,41.3,41.2,41.8,43.4,41.0,52,53,50,0.468,25.6,26.2,25.2,4.998,4.1,281,5.2,5.3,0.00008,0.00012,46.2,46.7,44,0,0,0.0,0.05,0.00,0.00
15min,AgWx,bigpiney,439,03OCT2020:03:00:00,41.8,12.54,41.7,41.9,41.9,43.0,41.2,52,53,50,0.468,25.5,25.7,24.8,4.406,4.5,285,4.8,5.4,0.00010,0.00015,46.2,46.7,44,0,0,0.0,0.05,0.00,0.00
15min,AgWx,bigpiney,439,03OCT2020:03:15:00,41.3,12.53,33.4,33.9,36.1,41.9,33.9,61,66,51,0.432,23.8,25.5,22.5,5.086,5.4,244,8.8,6.2,0.00008,0.00011,46.1,46.7,44,0,0,0.0,0.05,0.00,0.00
15min,AgWx,bigpiney,439,03OCT2020:03:30:00,40.1,12.52,30.8,31.1,32.4,33.8,31.1,69,72,66,0.426,23.5,24.1,23.1,6.511,5.9,211,7.0,7.3,0.00004,0.00006,46.0,46.7,44,0,0,0.0,0.05,0.00,0.00
15min,AgWx,bigpiney,439,03OCT2020:03:45:00,38.7,12.5,29.7,29.5,30.0,31.1,29.4,76,78,73,0.430,23.4,23.7,23.2,6.226,6.4,208,4.3,7.5,0.00002,0.00003,46.0,46.7,44,0,0,0.0,0.05,0.00,0.00
15min,AgWx,bigpiney,439,03OCT2020:04:00:00,37.4,12.5,31.1,30.8,29.9,31.0,29.4,78,78,76,0.442,23.8,24.4,23.4,5.7,6.1,216,5.0,7.3,0.00000,0.00002,45.9,46.7,44,0,0,0.0,0.05,0.00,0.00
15min,AgWx,bigpiney,439,03OCT2020:04:15:00,36.5,12.49,30.9,30.8,31.1,31.5,30.7,75,76,74,0.436,24.0,24.3,23.8,5.568,5.3,221,5.6,6.9,0.00000,0.00002,45.9,46.7,44,0,0,0.0,0.05,0.00,0.00
15min,AgWx,bigpiney,439,03OCT2020:04:30:00,35.9,12.48,30.7,30.3,30.4,30.8,29.9,75,76,75,0.433,23.6,23.9,23.1,4.253,4.9,224,5.1,5.7,-0.00001,0.00000,45.8,46.6,44,0,0,0.0,0.05,0.00,0.00
15min,AgWx,bigpiney,439,03OCT2020:04:45:00,35.2,12.47,28.2,28.4,30.2,31.5,28.4,75,78,72,0.410,23.1,24.2,21.9,3.924,4.9,218,5.1,6.9,-0.00001,0.00001,45.8,46.6,44,0,0,0.0,0.05,0.00,0.00
15min,AgWx,bigpiney,439,03OCT2020:05:00:00,34.4,12.46,29.3,27.7,26.7,28.4,25.3,81,84,78,0.432,21.8,23.6,20.7,5.349,4.8,180,10,6.9,-0.00003,-0.00003,45.7,46.6,44,0,0,0.0,0.05,0.00,0.00
15min,AgWx,bigpiney,439,03OCT2020:05:15:00,33.6,12.45,31.6,30.9,31.0,33.0,27.9,75,84,70,0.430,24.0,25.6,23.0,4.253,5.3,197,5.4,7.1,0.00000,0.00002,45.7,46.6,44,0,0,0.0,0.05,0.00,0.00
15min,AgWx,bigpiney,439,03OCT2020:05:30:00,33.3,12.44,34.7,32.9,30.9,32.9,28.9,74,78,72,0.461,23.5,25.1,21.5,4.932,4.3,222,13,4.9,-0.00002,-0.00001,45.6,46.6,44,0,0,0.0,0.05,0.00,0.00
15min,AgWx,bigpiney,439,03OCT2020:05:45:00,32.9,12.42,26.3,26.7,28.3,35.0,25.9,76,83,64,0.398,21.6,25.8,18.9,4.099,3.6,242,18,4.9,-0.00004,-0.00003,45.6,46.6,44,0,0,0.0,0.05,0.00,0.00
15min,AgWx,bigpiney,439,03OCT2020:06:00:00,32.2,12.42,30.8,29.9,27.6,29.9,25.4,79,84,73,0.412,21.8,22.7,20.1,2.17,3.2,267,9.4,4.9,-0.00006,-0.00006,45.5,46.7,44,0,0,0.0,0.05,0.00,0.00
15min,AgWx,bigpiney,439,03OCT2020:06:15:00,31.5,12.4,28.1,27.8,29.2,31.4,27.4,74,79,68,0.404,21.8,22.9,20.2,5.349,4.5,244,8.9,5.9,-0.00001,0.00000,45.5,46.6,44,0,0,0.0,0.05,0.00,0.00
15min,AgWx,bigpiney,439,03OCT2020:06:30:00,31.1,12.39,29.2,27.9,29.1,30.0,27.8,75,79,72,0.384,22.1,23.1,20.5,3.858,4.5,265,9.4,5.7,-0.00001,-0.00000,45.4,46.6,44,0,0,0.0,0.05,0.00,0.00
15min,AgWx,bigpiney,439,03OCT2020:06:45:00,30.8,12.38,31.2,30.6,30.0,31.4,28.1,72,76,69,0.413,22.2,23.1,20.4,2.126,2.8,291,7.2,4.3,-0.00006,-0.00006,45.4,46.6,44,0,0,0.0,0.05,0.00,0.00
15min,AgWx,bigpiney,439,03OCT2020:07:00:00,30.6,12.38,30.3,30.7,31.7,32.4,30.6,69,72,67,0.405,22.7,23.5,21.4,1.271,2.3,299,14,3.3,-0.00007,-0.00008,45.3,46.5,44,0,0,0.0,0.05,0.00,0.00
15min,AgWx,bigpiney,439,03OCT2020:07:15:00,30.3,12.37,26.5,28.3,30.2,32.0,28.3,71,74,67,0.387,22.0,23.2,20.6,4.582,2.6,227,17,4.6,-0.00006,-0.00007,45.3,46.5,44,1,0,0.0,0.05,0.00,0.00